Weather at Kinmen Airport

Public forecast

Using degrees Celsius for public forecast. Weather courtesy of forecast.io.

Closest aviation weather report (METAR) to Kinmen Airport

Closest report is Xiamen Gaoqi International Airport, 14.4 nm (26.7 km) WNW. Retrieved 2020/10/20 16:00 UTC (41 minutes ago):

ZSAM 201600Z VRB01MPS 9999 BKN040 24/16 Q1015 NOSIG

Aviation forecast (TAF) for Kinmen Airport

Forecast is more than 12 hours old.

Retrieved 2020/01/15 06:03 UTC (9 months ago):

TAF TAF RCBS 150500Z 1506/1606 03013KT 7000 FEW012 BKN032 TEMPO 1506/1510 08015KT 5000 HZ TEMPO 1510/1514 05018KT SCT008 BKN017 BKN035 BECMG 1518/1520 02005KT TEMPO 1520/1602 4000 BR SCT007 BKN016 BKN030 BECMG 1602/1604 12005KT